Regional Weather Roundup
Issued by NWS

Home | Current Version | Previous Version | Text Only | Print | Product List | Glossary Off
Versions: 1 2 3 4 5 6 7 8 9 10 11 12 13 14 15 16 17 18 19 20 21 22 23 24 25 26 27 28 29 30 31 32 33 34 35 36 37 38 39 40 41 42 43 44 45 46 47 48 49 50

000
ASUS45 KTFX 280904
RWRMT
MONTANA REGIONAL WEATHER ROUNDUP
NATIONAL WEATHER SERVICE GREAT FALLS MT
300 AM MDT FRI AUG 28 2015

NOTE: "FAIR" INDICATES FEW OR NO CLOUDS BELOW 12000 FEET WITH NO
SIGNIFICANT WEATHER AND/OR OBSTRUCTIONS TO VISIBILITY.

MTZ001>007-043-281000-
WEST OF THE DIVIDE

CITY           SKY/WX    TMP DP  RH WIND       PRES   REMARKS
KALISPELL      CLOUDY    51  42  71 NE6       30.01F HAZE
MISSOULA       CLOUDY    59  40  49 CALM      30.09S HAZE
BUTTE          CLOUDY    48  44  86 SE6       30.24F
MULLAN PASS    PTCLDY    60  35  39 SW5       30.21S
DEER LODGE       N/A     54  43  66 CALM      30.21F
EUREKA           N/A     68  39  34 SE7       29.98F
HAMILTON         N/A     63  39  42 S10       30.11S
LIBBY            N/A     55  41  58 CALM      30.01S
$$

MTZ008-052>055-281000-
SOUTHWEST MONTANA

CITY           SKY/WX    TMP DP  RH WIND       PRES   REMARKS
BOZEMAN        PTCLDY    54  48  80 S5        30.17R
DILLON         PTCLDY    54  42  64 S6        30.21S
W YELLOWSTONE  PTCLDY    39  37  93 CALM      30.33S
$$

MTZ009-010-012-014-046-048-049-054-281000-
EAST SLOPES AND CENTRAL MONTANA

CITY           SKY/WX    TMP DP  RH WIND       PRES   REMARKS
CUT BANK       CLOUDY    68  39  34 W15       30.01S HAZE
GREAT FALLS    CLOUDY    61  39  44 SW10      30.04R HAZE
MALMSTROM AFB  CLOUDY    68  39  33 W9        30.04R
HELENA         CLOUDY    65  43  44 CALM      30.11F
$$

MTZ011-013-016-021-045-047-050-051-281000-
NORTH CENTRAL MONTANA

CITY           SKY/WX    TMP DP  RH WIND       PRES   REMARKS
HAVRE          CLOUDY    62  44  51 SW12      29.94R
LEWISTOWN      CLOUDY    57  42  57 S3        30.06S
N BAR RANCH      N/A     59  39  47 CALM      30.08S
CHINOOK          N/A     59  48  67 CALM      29.91R
FORT BENTON      N/A     63  37  39 SW7       29.99S
$$

MTZ017>020-022>027-061-062-281000-
NORTHEAST MONTANA

CITY           SKY/WX    TMP DP  RH WIND       PRES   REMARKS
GLASGOW        CLEAR     60  52  74 N5        29.87S
JORDAN           N/A     57  43  59 W5        29.92S
SIDNEY         CLEAR     63  57  82 CALM      29.86R
WOLF POINT     CLEAR     61  54  77 CALM      29.87R
PLENTYWOOD       N/A     66  54  63 CALM      29.86S
POPLAR           N/A     61  54  77 SW3       29.87R
$$

MTZ028>42-056>058-281000-
SOUTHCENTRAL AND SOUTHEAST MONTANA

CITY           SKY/WX    TMP DP  RH WIND       PRES   REMARKS
BAKER          MOCLDY    66  58  75 W7        29.95S
BILLINGS       PTCLDY    68  46  45 SW20      30.05F
LIVINGSTON     PTCLDY    66  42  41 NW13      30.14S
MILES CITY     PTCLDY    68  46  45 SW8       29.94S
FORSYTH          N/A     70  46  43 SW3       29.95S
$$

REGIONAL REPORTS...DAKOTAS

CITY           SKY/WX    TMP DP  RH WIND       PRES   REMARKS
WILLISTON      CLEAR     65  61  87 S3        29.86R
MINOT          CLEAR     69  59  70 SW15      29.82R
DICKINSON      MOCLDY    62  55  77 S12       29.91R
BISMARCK       PTCLDY    66  61  84 S7        29.91S
GRAND FORKS    CLEAR     63  62  97 S7        29.84S
FARGO          PTCLDY    67  64  90 S9        29.90R
BUFFALO SD       N/A     61  55  81 W5        29.91S
RAPID CITY     CLEAR     57  54  89 CALM      29.98S
$$

REGIONAL REPORTS...WYOMING/IDAHO/WASHINGTON

CITY           SKY/WX    TMP DP  RH WIND       PRES   REMARKS
GILLETTE       MOCLDY    66  44  45 SW12      30.07F
SHERIDAN       MOCLDY    59  45  59 N5        30.06S
BUFFALO WY     MOCLDY    67  38  34 W8        30.14R
CODY           CLEAR     54  45  71 S5        30.18S
YELLOWSTONE LA   N/A     38  37  97 CALM      30.42S
IDAHO FALLS    PTCLDY    58  44  60 SW10      30.17F
SALMON         CLOUDY    57  43  58 CALM      30.15S
BOISE          PTCLDY    74  36  25 E8        30.02S
SPOKANE        CLOUDY    67  39  35 S7        29.98S
$$

REGIONAL REPORTS...ALBERTA

CITY           SKY/WX    TMP DP  RH WIND       PRES   REMARKS
$$

REGIONAL REPORTS...SASKATCHEWAN

CITY           SKY/WX    TMP DP  RH WIND       PRES   REMARKS
$$


USA.gov is the U.S. government's official web portal to all federal, state and local government web resources and services.